Wind_Speed
22 21 21 20 19 19 18 19 19 20 21 22 22 21 21 21 21 21 21 21 21 21 21 22 22 23 24 25 25 25 26 26 26 26 26 27 26 27 27 26 27 27 26 27 27 27 27 27 26 26 26 25 25 26 25 26 26 26 27 25 24 22 22 20 11 12 19 25 33 33 35 38 31 26 30 34 31 30 32 31 29 27 28 28 26 22 21 23
20 19 19 18 17 16 16 16 17 18 19 20 20 19 19 19 20 20 20 20 19 19 19 20 21 22 23 23 24 24 24 25 26 25 26 27 26 27 27 26 27 26 26 26 27 27 26 26 26 26 26 26 26 26 25 25 25 26 26 24 24 21 18 16 12 17 24 28 36 38 38 39 33 27 28 30 30 32 33 30 28 27 27 26 25 24 23 23
18 18 18 17 16 16 15 15 15 16 16 17 17 17 17 18 18 18 18 18 17 17 17 18 19 19 20 21 21 22 23 23 24 24 25 25 25 26 26 26 26 26 26 26 26 26 26 26 25 26 26 25 25 25 25 25 25 25 26 25 23 19 17 18 23 30 33 32 37 39 38 37 32 29 27 26 29 33 31 28 26 25 27 26 24 23 23 24
16 16 17 16 16 15 14 14 14 14 14 15 15 15 16 16 16 16 16 15 15 15 15 16 16 17 17 18 19 19 21 21 22 22 23 23 24 24 25 25 25 25 25 25 25 25 25 25 24 25 25 25 24 24 25 24 24 25 27 25 21 21 17 20 31 35 38 40 38 35 31 29 31 30 25 25 27 29 27 25 26 27 29 27 23 23 24 25
14 14 15 15 15 14 14 13 13 13 13 13 13 14 14 15 15 14 14 14 14 14 14 14 14 15 15 16 17 18 19 19 19 20 20 21 22 22 23 23 23 24 23 24 23 23 23 23 23 24 23 23 23 23 23 23 24 25 25 24 24 27 21 23 37 37 39 41 35 32 25 22 30 28 22 22 22 25 25 26 30 30 28 22 19 24 26 27
11 12 13 14 14 13 13 13 12 12 12 12 13 13 13 13 13 13 12 12 12 12 12 12 13 14 14 15 16 16 17 17 17 18 19 19 20 20 21 21 21 21 22 22 21 21 21 21 21 21 22 22 21 21 22 22 24 24 22 24 28 31 30 33 36 29 31 34 31 31 24 23 30 25 20 21 23 27 27 28 32 29 21 16 18 25 28 28
10 10 12 12 13 12 12 12 12 12 12 12 12 12 12 13 13 12 11 11 11 11 11 11 12 12 13 14 14 14 15 15 15 16 17 17 18 18 18 19 19 19 20 19 19 20 19 20 20 20 20 19 19 19 20 22 23 22 22 24 27 30 34 36 29 18 21 27 30 31 25 26 29 22 22 25 26 29 29 29 31 26 21 19 22 27 29 28
9 9 10 11 11 11 11 11 12 12 12 12 12 12 12 12 12 12 11 10 10 10 11 11 11 11 12 12 12 12 12 12 12 13 13 14 14 15 15 16 16 16 16 16 17 17 18 18 17 17 17 16 18 18 19 21 20 20 21 24 27 29 31 31 23 17 20 23 28 29 23 24 25 23 27 27 27 31 30 29 30 27 25 23 24 27 28 28
9 9 9 9 10 10 11 11 11 12 12 12 12 12 13 12 12 12 11 11 11 11 11 11 11 11 11 11 10 9 9 9 9 10 10 9 10 11 12 12 13 13 12 13 13 14 15 15 15 16 16 17 18 18 20 18 17 20 21 24 28 26 26 26 20 19 22 22 26 26 23 24 27 27 29 25 26 32 27 25 30 30 27 24 24 26 27 27
9 9 8 8 9 10 10 11 11 12 12 12 13 13 13 13 13 12 12 12 12 12 12 12 11 11 11 10 9 8 7 7 7 7 7 7 7 7 8 8 9 10 10 10 10 11 12 12 14 14 15 17 17 17 17 16 20 23 23 26 26 21 23 23 20 22 24 24 25 26 24 27 29 28 26 23 28 33 24 24 31 30 27 25 24 26 27 28
9 9 8 8 8 9 10 10 11 12 12 13 13 13 14 14 14 13 13 13 13 13 13 13 12 12 11 10 10 9 8 7 6 7 7 6 6 7 7 7 8 8 9 9 10 10 10 11 12 12 14 16 15 17 17 18 22 22 21 23 22 20 23 22 21 24 23 23 26 25 24 28 28 26 22 22 32 34 23 25 31 30 29 27 26 27 28 29
9 9 9 8 8 8 8 9 10 11 12 13 14 14 14 14 14 14 14 14 14 14 14 14 13 13 13 12 12 10 9 9 8 8 7 7 7 8 8 8 9 9 9 10 11 11 12 12 13 15 15 14 15 19 18 19 21 20 20 21 21 22 23 21 22 24 22 25 27 23 24 26 26 25 19 24 37 32 21 25 32 32 31 30 29 28 29 30
9 9 9 9 8 8 8 8 9 10 11 13 14 15 15 15 15 15 15 15 15 15 15 15 15 14 14 14 13 13 12 11 10 10 9 9 9 9 10 10 10 11 11 12 12 12 13 14 15 17 15 15 19 19 16 18 19 20 21 20 22 24 23 21 23 24 24 27 27 22 25 26 26 25 22 31 40 30 24 29 32 33 33 32 31 29 31 32
9 9 9 9 9 9 9 8 9 9 10 12 13 14 15 16 16 16 16 16 16 16 16 16 16 16 16 16 15 14 14 13 13 12 12 12 12 12 12 13 13 13 14 14 14 14 15 15 16 17 16 19 21 16 15 19 19 19 21 21 22 24 22 21 26 28 25 27 26 24 26 25 24 25 27 37 39 29 28 31 32 34 34 34 33 31 32 33
10 10 10 10 10 10 9 9 9 9 10 10 12 13 14 15 16 17 17 17 17 17 17 17 17 17 17 16 16 16 16 16 15 15 15 15 15 15 15 15 15 15 15 16 15 16 17 17 18 18 19 21 19 17 18 20 20 20 21 21 22 23 17 17 28 30 24 26 27 25 26 24 19 21 32 42 37 28 29 32 34 35 35 34 33 32 33 35
10 10 10 10 10 10 11 11 11 10 11 11 11 12 13 14 15 16 16 17 17 17 17 18 18 18 17 17 17 18 17 17 17 17 18 18 18 17 17 17 17 18 18 18 18 18 19 19 20 20 20 21 20 20 21 21 22 21 22 21 21 23 14 13 30 31 25 29 29 26 26 23 16 19 35 43 36 29 28 31 34 35 35 33 32 32 34 36
10 10 10 10 10 11 11 11 11 11 12 12 12 12 12 13 13 14 15 15 16 17 18 18 18 18 18 18 18 18 17 18 18 19 19 19 19 18 19 19 19 19 19 19 19 20 20 21 21 21 21 22 20 20 21 21 20 19 21 21 20 20 12 13 28 31 27 31 29 25 24 22 18 24 38 43 37 30 27 28 31 34 35 32 32 33 34 36
11 11 11 11 11 11 10 11 11 11 12 12 12 13 13 14 14 14 14 14 14 15 16 17 17 19 19 17 17 17 17 18 18 19 19 19 19 19 19 19 19 19 19 19 19 19 20 20 21 21 21 20 20 20 19 17 15 12 14 18 20 19 15 15 20 26 28 31 28 23 21 20 20 26 38 45 39 31 30 30 30 33 34 32 32 33 35 36
12 12 12 12 11 11 11 10 10 11 11 11 12 12 13 14 15 15 15 14 15 15 15 15 16 19 18 17 17 18 18 18 18 18 19 18 18 19 18 19 19 19 19 19 19 20 21 21 20 21 21 21 22 20 18 20 22 19 17 19 19 16 13 14 20 26 31 33 30 25 22 21 23 25 33 46 44 33 32 33 30 33 34 33 34 34 35 35
13 13 12 12 12 12 12 11 11 10 10 11 11 11 12 13 14 15 16 16 16 16 15 15 16 18 18 16 16 18 18 18 19 19 19 19 19 19 19 20 20 19 20 20 21 21 20 21 21 21 23 24 25 23 23 26 27 24 22 22 20 16 12 11 19 31 35 33 31 29 27 25 27 28 30 40 47 40 33 32 31 33 34 35 35 35 34 34
13 13 13 13 13 13 13 12 12 11 11 11 11 11 11 12 13 14 15 16 16 16 16 16 17 19 18 16 15 17 18 18 20 19 19 19 19 21 21 21 21 20 21 22 23 22 20 20 20 21 24 24 25 26 26 26 23 22 24 24 25 25 22 20 25 35 38 35 34 33 33 29 28 31 31 35 45 47 38 31 31 32 33 35 35 34 34 35
14 13 14 14 14 14 14 13 13 13 12 12 12 12 12 12 12 13 14 14 14 15 17 17 18 20 19 18 17 17 17 19 20 19 19 19 19 21 21 20 21 21 22 24 24 22 21 21 21 24 25 22 24 25 24 24 22 23 25 26 27 29 28 25 27 34 38 39 38 34 33 33 30 29 31 33 39 45 42 32 28 29 33 34 33 33 33 34
15 15 15 15 15 15 15 15 14 14 14 13 13 13 13 13 12 12 13 14 13 14 15 15 17 19 19 18 18 18 19 21 22 20 18 19 20 22 22 20 20 22 22 24 25 22 22 23 24 27 24 21 25 26 25 24 22 23 26 28 29 28 27 24 26 33 39 40 36 33 33 33 32 30 31 34 35 38 42 35 28 28 31 32 32 32 32 32
16 16 16 16 17 16 16 16 16 15 15 15 14 14 14 14 13 13 13 14 15 14 15 15 16 17 17 17 16 18 21 22 24 21 16 17 21 22 22 21 21 23 22 23 25 23 23 25 25 25 24 24 27 27 26 25 24 25 26 28 29 28 28 27 30 37 41 39 32 31 36 34 30 30 32 34 34 35 38 36 30 28 29 30 30 30 30 29
17 16 16 16 16 16 17 17 16 16 16 15 15 14 15 15 14 14 14 15 16 15 15 14 14 15 15 15 14 17 19 20 23 23 17 18 23 23 23 23 23 22 22 23 26 24 24 29 27 25 26 27 27 27 28 28 28 29 29 30 31 31 32 33 37 42 41 36 33 33 37 34 29 31 33 34 35 34 34 33 31 29 28 28 27 27 28 28
14 14 14 13 13 14 14 15 15 15 16 16 15 15 15 15 15 15 15 16 16 14 14 14 14 14 15 15 14 15 17 18 20 21 18 18 22 23 24 25 24 22 23 25 26 22 23 30 29 27 31 30 28 29 30 31 31 32 31 32 31 31 34 35 36 40 37 31 33 36 35 32 28 27 27 28 32 32 30 28 26 26 26 26 25 25 26 27
10 10 10 9 9 10 10 10 11 12 12 13 14 14 14 15 15 15 15 15 15 14 14 14 13 14 15 14 14 15 16 17 17 17 17 17 19 20 19 22 23 21 23 26 26 21 22 29 28 27 30 30 29 30 29 30 31 30 29 28 27 28 31 32 29 31 30 26 30 35 32 29 27 23 21 23 27 31 29 25 22 23 25 25 25 25 26 26
7 7 7 7 7 8 8 8 8 9 9 10 10 11 12 12 13 14 14 14 13 14 16 15 14 15 16 15 15 16 17 18 18 17 16 15 16 17 17 19 19 18 21 23 23 22 23 27 26 23 23 24 23 24 25 26 25 24 24 23 23 24 26 26 23 23 24 23 28 29 26 26 24 19 19 19 19 24 27 26 24 23 23 25 25 25 26 27
6 7 7 7 7 7 7 8 8 8 8 9 9 9 10 10 11 11 11 12 11 14 17 18 17 16 16 16 16 17 18 19 20 18 17 17 17 18 18 19 18 18 20 20 19 20 21 24 24 20 20 20 19 19 20 21 19 19 21 19 19 20 20 20 20 20 21 23 26 22 19 23 23 18 16 15 18 24 27 28 27 23 20 22 23 24 26 27
6 6 6 6 6 7 7 7 8 8 8 9 9 9 9 10 10 10 9 9 10 13 15 16 17 16 16 17 17 18 19 19 20 19 19 18 17 18 19 19 19 19 20 19 19 19 20 23 23 20 20 20 19 19 17 17 18 17 18 17 17 19 18 19 19 19 22 25 22 17 16 19 23 20 11 8 18 26 23 24 27 25 21 20 20 21 23 25
5 6 6 6 6 6 6 7 7 7 8 8 9 9 9 10 10 10 11 10 10 12 13 14 16 15 14 15 16 17 19 19 20 20 18 18 18 18 19 20 20 20 20 20 20 20 23 25 23 22 22 20 20 20 17 17 18 18 18 18 18 18 18 20 20 21 25 24 18 16 17 19 24 22 11 14 19 21 20 21 22 22 24 24 23 22 21 23
5 5 5 5 5 6 6 6 7 7 8 8 8 9 9 10 9 9 10 11 11 13 14 13 14 14 13 14 14 17 19 19 18 17 17 18 19 19 20 21 21 20 17 18 19 19 21 22 21 21 21 21 20 19 19 19 19 19 18 18 18 17 16 19 21 22 25 22 17 16 17 20 24 19 12 18 20 17 18 21 18 18 27 31 28 26 25 24
4 4 4 5 5 6 6 7 7 8 8 8 9 10 9 9 9 9 9 10 12 13 14 16 16 17 17 16 14 14 17 18 17 17 17 17 17 17 18 18 20 18 15 16 18 17 16 17 18 18 19 19 19 17 18 17 17 19 18 18 19 17 16 19 20 20 21 21 19 18 19 22 23 20 16 19 22 17 16 21 21 20 27 33 31 29 30 29
4 4 5 5 6 7 7 8 9 9 10 10 10 11 10 9 9 10 9 11 14 14 15 18 19 18 20 17 12 12 15 17 18 19 17 17 18 17 17 19 21 18 16 18 19 17 17 16 16 17 16 18 17 15 15 13 13 17 17 17 20 18 17 19 19 19 19 20 21 21 22 23 23 22 20 18 22 19 15 20 26 28 30 33 33 33 33 34
4 5 6 6 8 9 9 10 11 11 12 12 12 12 11 10 11 12 12 13 18 18 17 20 20 19 21 18 13 16 18 17 19 21 19 19 21 20 21 23 23 22 21 21 19 17 19 18 18 17 17 20 22 20 19 18 18 17 16 18 22 21 20 22 23 24 24 26 28 27 28 29 27 26 25 24 26 25 21 21 25 32 35 35 35 34 32 34
7 7 8 9 10 11 11 12 13 14 14 15 14 13 12 12 12 13 14 14 18 20 19 20 20 17 16 13 9 14 17 14 16 22 22 20 21 20 19 18 21 24 24 23 22 21 22 22 21 20 17 20 24 24 21 21 20 19 19 21 22 21 23 25 27 28 28 30 31 29 30 31 31 31 31 31 32 32 30 26 22 25 31 33 33 31 27 29
9 9 10 10 11 12 14 15 15 16 17 18 17 14 14 15 14 14 15 15 18 21 20 20 19 16 14 13 12 12 16 16 17 22 23 20 18 16 14 14 18 24 23 23 26 26 27 27 26 25 22 21 26 27 25 24 24 24 23 22 21 21 24 26 28 29 30 32 33 32 32 31 31 32 28 27 30 29 28 25 21 21 24 26 29 29 27 27
11 12 12 12 13 14 15 17 18 19 20 20 20 16 15 16 17 16 17 19 20 21 22 21 20 21 20 21 20 16 17 21 21 21 20 17 18 18 18 19 23 27 26 27 29 28 29 30 29 29 27 27 28 29 30 30 29 28 26 24 24 28 31 30 29 31 32 34 37 36 36 34 32 30 27 25 26 26 24 22 21 23 24 23 26 29 27 25
13 14 15 14 15 16 17 19 20 22 23 22 20 18 17 18 20 19 19 22 24 22 22 22 23 25 24 24 25 22 23 25 24 24 22 20 23 26 27 26 28 31 30 29 30 29 30 32 33 32 30 31 31 31 31 33 31 29 27 29 30 32 34 34 34 35 36 37 40 39 38 36 30 30 31 28 25 25 27 26 25 27 27 25 26 27 25 25
17 18 17 17 18 19 20 21 23 25 25 22 20 20 20 20 22 23 22 23 25 25 25 24 24 26 26 26 27 26 28 28 29 31 30 29 30 30 33 34 33 34 34 32 33 33 33 35 37 36 33 33 33 33 33 35 35 33 30 32 34 32 32 34 35 36 37 36 37 38 40 38 33 32 33 31 30 29 29 28 27 27 30 30 30 30 30 31
21 22 21 20 21 22 23 24 25 25 25 23 22 21 20 21 24 29 28 25 26 27 27 26 25 26 27 28 28 28 30 30 31 33 32 31 29 28 35 39 35 34 34 34 35 36 35 36 37 37 36 35 35 34 35 36 36 35 32 33 35 33 32 33 33 33 34 34 35 37 38 35 32 31 31 33 36 34 33 32 30 31 32 31 29 29 32 35
23 24 24 24 25 25 25 26 27 27 25 23 22 23 25 25 27 31 32 30 29 29 29 28 26 27 28 29 29 29 31 32 33 33 33 32 30 31 38 41 38 35 34 33 36 39 38 37 37 38 38 38 37 35 36 37 37 38 37 36 36 35 35 36 37 37 37 36 36 39 40 36 32 32 34 37 40 39 39 37 36 37 36 34 33 33 33 35
26 26 26 27 28 28 28 29 29 29 27 25 23 26 31 31 31 32 33 33 33 31 31 29 28 28 28 29 30 30 31 34 34 34 34 32 33 37 40 40 39 37 35 34 38 41 40 38 38 39 40 40 39 36 36 36 37 38 39 39 40 40 40 42 44 44 43 41 39 41 44 41 36 37 39 41 41 41 42 41 41 43 43 41 41 40 39 38
28 29 29 28 29 31 32 32 32 31 31 31 29 30 33 34 34 33 32 34 36 34 33 31 30 30 29 29 31 30 32 35 35 35 35 34 36 40 40 39 39 40 40 39 39 40 39 38 39 40 41 41 40 37 35 33 33 36 37 39 40 40 41 43 44 43 43 42 40 42 46 44 40 41 43 45 45 43 44 45 45 46 46 45 44 42 41 41
30 32 33 32 32 33 34 34 34 33 33 34 33 32 34 35 36 37 34 33 35 36 35 33 31 32 31 31 32 31 32 34 35 36 36 36 37 39 39 40 42 45 45 41 38 39 39 40 42 42 42 42 41 39 36 34 36 39 39 40 40 38 40 41 40 41 42 42 41 43 46 44 42 43 42 43 46 47 48 49 49 48 48 49 48 46 46 45
33 35 35 36 36 36 36 35 35 34 35 35 34 34 35 34 37 40 39 34 34 36 36 34 34 33 33 33 33 33 33 33 36 37 37 38 38 38 39 42 46 48 46 43 40 40 41 42 43 43 43 43 42 41 41 41 43 44 44 44 44 43 45 45 45 46 46 47 48 47 47 47 47 46 45 45 46 48 49 50 51 52 51 52 51 51 52 53
37 38 38 37 38 38 37 37 36 34 35 36 36 35 35 35 35 40 42 38 36 36 34 33 35 35 34 35 35 35 35 35 36 37 38 40 40 39 40 42 45 47 47 45 42 40 41 42 43 43 44 43 43 43 43 44 45 46 46 46 45 45 47 48 50 50 49 52 53 50 48 51 51 49 48 47 48 49 50 52 54 53 53 53 53 54 56 57
39 40 40 39 38 38 37 37 38 36 36 37 38 36 36 37 35 37 40 41 39 37 34 33 34 33 34 36 36 36 37 37 36 37 38 40 40 41 41 41 42 44 45 46 44 42 41 41 42 43 44 43 43 44 45 46 47 47 47 46 45 45 46 47 49 50 51 54 55 51 50 52 51 50 49 49 50 53 55 55 55 55 54 54 54 56 58 59
40 41 41 39 38 38 37 36 36 37 36 38 38 37 38 38 36 35 37 39 38 37 35 35 35 34 34 36 37 38 39 39 38 37 37 39 40 41 42 41 40 41 42 44 45 45 44 42 42 43 43 43 44 45 45 46 47 47 47 46 45 46 47 49 50 50 50 51 51 51 52 53 51 49 50 50 51 53 54 55 55 54 55 56 56 57 58 59
40 40 40 39 37 37 37 36 35 35 36 38 39 37 37 38 36 34 35 36 37 37 36 36 36 36 35 35 37 38 39 41 41 38 36 38 39 41 41 40 40 40 41 43 44 44 45 44 43 44 44 43 44 45 46 45 45 46 47 46 46 48 49 49 48 47 48 49 50 51 54 54 50 47 49 50 51 53 54 55 56 55 55 56 57 57 58 58
39 39 39 39 37 36 37 37 37 36 36 38 38 37 37 37 36 35 35 34 35 37 37 37 36 36 36 36 37 37 39 42 42 38 36 37 38 40 41 40 39 40 41 41 41 42 43 45 45 46 46 45 43 45 46 45 46 48 47 46 46 47 46 46 45 46 47 49 51 52 53 53 49 49 51 52 51 52 52 53 55 55 55 56 57 58 58 58
38 38 38 38 37 36 37 37 37 37 38 38 36 36 38 37 37 38 36 34 34 36 37 37 37 37 36 36 38 38 40 42 40 37 36 38 39 40 40 39 39 40 40 40 41 41 42 44 44 45 47 46 44 45 45 45 48 49 46 44 45 45 46 46 47 47 47 48 50 51 52 52 49 49 49 49 48 47 47 49 50 50 49 51 53 55 56 56
Wind_Direction
274 273 273 272 270 269 267 264 261 259 257 256 256 257 259 260 260 260 261 259 258 257 256 256 255 256 256 257 257 258 258 258 258 257 255 253 252 252 252 251 250 250 249 249 247 247 247 247 247 247 247 246 245 244 242 240 238 238 236 235 232 227 223 212 216 239 232 237 237 239 250 254 254 243 242 249 252 252 251 253 250 246 249 252 252 243 231 232
274 272 271 271 271 270 269 266 263 260 257 255 254 255 256 258 259 260 260 259 258 258 258 258 257 257 257 258 259 259 260 259 258 257 255 254 253 252 251 250 250 249 248 247 246 245 246 246 245 245 245 244 242 241 240 238 236 236 234 232 229 224 219 209 204 225 226 233 239 240 246 251 254 250 246 247 248 248 248 250 249 247 249 249 246 243 237 232
274 271 270 271 272 272 271 268 264 260 256 253 251 252 254 256 259 259 259 258 258 257 257 257 256 257 258 259 260 261 260 260 259 257 256 255 253 252 251 251 250 249 248 247 246 245 245 244 244 243 243 242 241 240 239 238 235 235 234 231 228 217 213 214 210 216 217 223 235 239 245 250 252 254 248 239 241 246 249 250 248 248 248 245 242 241 240 237
277 272 270 271 273 273 272 269 264 259 254 250 249 251 254 257 258 258 258 257 256 255 255 255 256 257 257 259 259 259 260 259 258 256 256 255 253 253 251 251 250 249 248 247 246 245 244 243 243 242 242 242 241 240 239 239 235 234 233 228 222 209 209 226 224 224 224 228 240 247 253 253 246 250 246 235 240 247 248 248 246 242 243 243 242 242 242 242
283 275 271 272 274 274 272 268 263 257 253 251 250 252 254 256 255 255 255 255 256 255 256 257 257 258 258 259 258 258 258 257 257 256 254 253 252 251 251 250 249 249 248 247 246 245 244 243 242 242 242 242 241 240 239 238 235 233 231 223 219 209 203 228 232 231 233 235 248 255 254 251 243 245 244 235 235 244 243 242 243 241 246 252 246 245 245 245
293 278 272 272 274 274 272 267 262 257 254 253 252 253 252 253 252 251 252 254 256 257 259 261 261 262 262 261 260 260 259 257 257 254 252 251 250 249 249 248 247 247 246 245 245 243 243 241 241 241 240 241 240 240 237 235 234 232 228 223 227 221 215 233 241 246 246 239 244 249 241 236 240 240 241 235 231 243 245 243 250 250 256 258 240 243 246 245
304 284 273 272 273 274 273 269 264 259 256 255 253 251 250 250 250 249 251 255 259 261 262 263 264 265 264 264 263 261 259 258 257 254 252 250 249 248 247 247 245 244 243 242 242 240 239 238 238 237 238 239 237 236 235 234 234 230 225 223 231 231 229 240 250 256 247 230 232 240 232 229 239 241 238 237 239 249 251 251 259 259 254 245 236 243 248 247
316 297 278 273 274 274 273 269 264 260 257 255 252 249 248 248 249 250 254 257 262 265 265 266 266 265 264 264 263 261 258 257 256 252 250 248 246 246 244 244 242 241 240 239 238 236 235 233 232 232 228 228 230 227 227 231 231 228 228 228 232 234 235 243 245 240 235 226 231 241 238 237 244 244 240 242 248 253 254 258 262 257 250 244 242 246 249 251
323 314 294 280 277 275 273 269 264 260 257 255 252 249 247 248 250 253 257 261 265 266 267 268 267 266 265 264 263 261 258 255 252 247 243 241 239 238 237 237 237 236 233 232 232 229 230 225 222 224 220 223 227 224 225 227 227 226 226 230 236 236 239 244 240 237 239 237 240 245 246 245 246 246 247 249 254 255 254 258 259 255 251 246 246 248 249 251
322 323 314 297 285 278 274 270 266 262 259 257 254 252 250 251 252 256 260 263 267 269 270 271 270 270 267 265 261 256 255 249 245 241 231 225 226 223 224 226 226 225 222 222 222 223 227 224 224 224 224 231 232 229 227 222 226 228 226 233 240 240 242 247 246 244 244 245 247 249 249 248 250 250 253 254 255 255 252 252 256 257 255 248 246 250 252 254
318 320 320 313 300 287 278 273 269 266 263 260 257 255 253 254 255 258 261 263 267 270 271 273 274 273 270 265 259 253 249 243 238 235 226 215 213 212 213 214 215 216 215 217 219 222 223 226 229 226 226 231 233 233 228 224 233 237 236 243 250 248 246 246 247 248 248 251 250 249 250 251 254 255 256 257 255 254 251 254 259 260 258 253 248 251 256 258
319 317 317 316 311 301 289 279 271 268 265 262 260 258 256 256 257 259 262 264 267 270 272 274 275 274 272 266 260 256 250 243 238 236 230 220 215 213 213 214 217 219 221 223 225 226 226 226 227 228 229 231 234 234 231 232 240 245 244 249 253 249 248 247 250 252 249 250 249 248 252 254 257 258 257 256 254 253 252 254 259 259 259 257 253 254 258 259
318 316 314 313 311 308 301 291 279 270 265 263 262 260 259 258 258 259 261 264 267 270 272 273 274 274 272 267 263 259 255 248 242 240 237 231 227 225 224 225 226 228 230 231 232 233 233 234 234 236 236 238 238 237 238 242 245 249 249 251 256 254 252 251 252 254 252 252 251 250 253 255 258 259 256 253 254 254 252 252 255 259 260 259 257 259 260 260
318 316 314 311 309 306 303 298 291 282 273 267 264 262 261 260 260 260 261 263 265 268 270 271 272 272 270 268 267 264 259 255 250 246 244 241 238 237 237 237 237 239 240 240 240 240 240 241 243 245 243 243 245 246 248 248 247 252 253 252 256 259 263 265 256 249 250 254 256 254 253 255 262 265 257 252 252 254 255 255 257 259 260 260 260 261 262 262
318 316 314 311 309 304 301 298 294 291 285 278 272 268 265 263 262 261 261 262 263 264 266 268 269 269 269 269 266 262 259 257 254 251 250 249 247 246 247 247 247 248 248 249 248 247 247 247 247 248 249 250 251 252 251 252 252 252 258 259 259 260 266 275 263 252 252 257 256 255 256 257 262 269 262 255 253 251 253 257 258 260 260 260 262 263 263 262
316 315 313 311 309 305 302 298 294 291 288 286 282 278 274 270 267 265 263 262 261 262 263 264 265 266 267 266 264 263 261 259 256 254 254 254 254 253 253 254 255 255 255 255 255 254 253 252 252 253 254 255 255 255 255 256 257 256 258 260 262 264 255 260 268 265 262 263 257 251 255 257 250 254 261 261 258 250 249 256 258 260 262 263 263 264 264 263
313 312 311 309 307 305 303 300 296 292 289 286 284 283 281 279 277 273 270 266 264 262 262 262 264 264 264 264 266 267 266 263 259 258 257 256 257 257 257 258 258 259 259 259 257 257 256 255 256 256 256 258 257 256 256 258 263 268 268 261 258 261 254 265 281 280 267 260 259 254 252 253 246 250 259 263 262 260 257 259 261 262 263 265 265 265 265 265
308 308 307 306 304 302 301 300 298 295 292 288 284 281 280 280 280 278 276 274 270 267 265 266 265 264 263 264 267 267 264 262 261 261 260 259 260 259 259 260 260 260 260 260 260 259 257 257 256 256 257 258 256 255 257 257 252 258 269 263 255 252 240 236 262 276 268 261 263 259 251 248 245 253 263 266 265 265 265 265 266 266 264 265 266 267 268 269
302 301 301 300 300 299 298 298 298 298 296 293 288 283 279 277 277 276 276 275 273 271 270 270 268 267 265 263 264 264 262 261 260 259 260 260 260 260 260 260 259 260 260 259 260 259 258 258 258 260 259 255 254 251 247 245 240 242 248 252 256 257 247 234 244 261 265 265 268 263 252 250 248 250 260 269 271 265 264 269 270 269 268 266 266 266 268 270
298 297 296 295 295 295 295 295 295 296 296 295 293 289 284 280 278 275 274 273 272 270 269 268 268 269 268 265 265 265 264 262 260 258 257 257 258 259 258 258 259 259 260 258 257 258 261 262 260 259 258 257 257 251 246 249 254 256 251 246 250 246 242 250 254 259 261 263 267 267 262 257 253 251 253 266 273 270 263 267 269 269 271 270 267 267 268 269
295 294 293 293 292 292 292 292 291 291 291 290 290 290 289 286 282 278 275 273 271 269 268 266 265 267 269 269 266 266 266 264 262 259 258 258 257 258 256 257 259 258 258 258 258 260 260 261 260 255 254 257 260 258 256 259 260 257 250 245 248 248 252 255 252 259 266 265 265 267 270 266 259 258 255 259 270 275 271 265 267 268 268 268 269 270 270 268
294 293 292 291 291 290 290 290 289 289 287 286 285 286 287 286 283 280 279 276 274 271 269 266 264 265 267 268 265 266 267 265 262 259 259 259 258 258 257 257 259 260 259 259 260 262 260 258 256 255 256 257 258 259 259 258 254 252 252 250 249 252 260 263 259 263 267 266 265 268 271 270 265 262 261 260 266 274 276 270 265 265 265 266 269 270 269 269
292 291 290 289 288 288 287 287 286 286 285 284 283 283 283 282 280 280 280 278 275 272 271 268 266 265 265 265 264 264 263 263 264 260 256 259 259 259 260 259 260 260 261 262 261 260 260 257 254 256 260 257 256 257 257 258 255 253 253 253 253 255 256 258 261 263 263 265 270 274 271 267 266 265 263 263 262 267 274 275 267 264 266 266 266 266 267 268
290 289 287 286 286 285 284 283 283 282 281 281 280 280 279 278 278 278 279 280 279 274 272 271 268 268 268 266 263 261 259 262 266 263 255 257 260 260 261 260 258 259 262 264 264 263 261 257 254 257 258 253 255 258 259 260 259 257 255 255 255 255 253 250 252 258 265 272 278 277 271 267 267 267 263 261 262 262 269 274 270 264 263 265 265 265 265 265
291 290 288 286 284 283 282 281 281 280 279 278 277 277 277 277 277 277 278 280 280 275 272 271 271 272 271 269 266 264 264 264 266 266 259 256 258 258 259 259 259 262 264 262 263 265 263 258 255 257 259 256 257 260 261 261 261 262 261 260 258 256 254 252 254 262 269 277 280 273 270 272 269 266 263 263 263 262 264 270 270 266 262 262 264 264 265 264
294 293 293 291 289 288 286 284 282 280 278 277 276 275 275 276 277 277 277 278 278 277 271 267 270 273 272 273 271 269 268 266 267 270 265 258 258 259 260 260 259 258 259 260 262 261 260 261 259 256 259 261 261 263 265 265 266 266 265 264 263 260 258 255 257 266 273 275 273 270 271 273 271 266 267 269 270 267 263 264 267 266 263 263 263 263 263 264
300 301 303 303 302 300 297 295 293 289 287 285 283 281 278 277 277 277 278 278 279 279 274 270 272 275 275 276 274 268 268 269 271 272 270 265 263 263 261 260 259 255 255 260 260 256 260 268 268 263 263 267 267 267 268 267 267 267 266 265 262 259 263 264 260 264 272 272 268 271 274 275 273 269 271 279 279 276 273 268 265 266 266 264 264 264 264 264
310 311 313 314 314 313 311 311 309 308 305 301 299 295 290 286 283 280 277 277 279 278 278 279 278 278 279 278 274 271 272 273 272 270 271 270 268 267 262 261 262 256 255 259 255 251 257 268 273 271 268 269 270 269 266 266 266 264 262 261 259 259 265 271 266 265 270 268 266 273 278 279 277 271 275 278 266 269 282 282 271 266 267 266 266 266 267 266
317 318 318 318 318 318 318 318 319 319 316 313 312 308 307 303 296 289 277 270 274 277 279 283 282 282 282 280 277 275 273 272 271 272 272 270 269 269 266 264 265 260 261 267 261 256 258 264 270 271 267 266 268 269 268 268 267 264 264 264 261 263 268 271 271 273 272 266 269 276 278 279 282 280 281 279 265 271 286 288 278 270 264 263 265 267 268 268
325 327 328 328 328 328 328 329 328 327 323 321 319 316 314 307 302 301 290 278 278 280 284 289 290 288 286 284 282 279 276 274 273 272 271 270 270 270 270 270 268 265 267 270 268 266 265 267 271 270 268 268 267 266 268 269 268 268 270 268 267 271 275 273 272 273 271 272 280 286 278 276 281 280 267 260 277 281 281 282 284 282 271 265 268 271 273 274
332 335 336 338 340 340 340 339 338 336 332 329 326 324 319 310 306 303 297 293 289 287 292 293 292 295 294 291 287 284 284 282 278 274 271 271 273 271 271 271 269 269 270 270 269 267 266 270 274 271 269 269 268 267 267 266 269 272 272 271 272 276 281 280 276 273 272 277 287 287 278 270 273 274 235 210 248 266 266 270 280 286 283 280 280 278 277 279
334 335 338 343 346 348 348 346 347 343 339 337 332 327 322 317 315 307 301 303 296 289 291 290 289 294 293 291 290 286 283 281 281 280 280 282 280 276 273 269 267 267 269 271 270 269 272 275 276 274 270 267 266 266 266 267 270 272 272 274 274 275 277 277 279 282 282 283 284 278 269 260 262 263 227 214 234 256 264 261 263 278 287 288 288 284 281 280
346 349 348 353 353 353 352 348 347 343 337 337 330 326 329 329 324 309 296 298 297 293 290 286 286 290 288 290 294 284 277 277 278 276 279 285 283 279 276 271 267 266 265 266 267 268 274 277 279 282 279 274 270 265 265 272 278 275 270 270 270 270 266 263 266 275 281 283 282 272 257 251 255 258 249 235 233 246 263 261 262 271 282 288 289 286 285 283
352 356 351 350 348 346 347 341 339 336 331 327 322 324 331 335 327 313 297 295 298 299 295 289 290 290 286 286 285 273 273 278 277 271 272 277 276 273 273 274 275 270 261 264 267 267 267 267 274 279 276 275 274 267 261 258 262 271 278 276 270 264 261 261 260 257 257 262 265 264 257 255 260 263 266 255 239 243 264 271 275 279 280 283 283 283 284 283
332 337 334 333 332 332 333 331 330 327 324 320 317 322 327 326 321 312 307 305 299 299 296 292 294 292 287 288 284 275 274 269 264 268 274 277 277 276 272 272 273 267 263 268 272 268 264 262 262 265 265 266 267 268 269 261 254 257 265 269 269 270 266 264 262 259 258 257 257 259 262 265 269 265 267 271 264 265 273 271 275 283 283 282 281 280 277 277
311 314 316 317 318 320 321 321 321 319 317 313 313 319 316 312 308 302 305 305 298 298 297 290 291 292 289 290 280 272 275 261 252 267 275 276 277 277 275 270 267 265 264 267 265 259 260 260 257 258 260 260 263 266 267 266 266 262 252 253 262 272 271 266 265 264 263 263 263 263 264 267 272 270 269 274 273 274 278 275 269 275 281 282 284 284 274 269
305 306 308 310 310 313 314 315 315 314 311 308 309 309 302 300 299 298 305 304 298 300 297 288 284 278 265 252 241 254 277 273 264 269 273 274 272 267 262 257 261 266 266 266 266 263 264 265 260 258 256 258 265 267 263 260 263 266 265 261 259 260 264 266 267 266 264 265 268 269 270 270 270 270 270 272 273 276 280 278 267 260 267 274 281 286 281 270
303 305 307 307 307 309 311 313 313 311 308 306 305 302 297 298 296 295 305 306 301 301 296 288 280 271 262 256 251 250 262 268 270 270 267 265 263 259 260 260 264 268 267 267 269 268 268 267 264 261 260 261 266 268 267 264 262 265 269 268 264 262 264 264 266 270 270 270 270 271 272 272 270 270 270 268 271 274 272 268 262 257 257 260 270 279 280 275
299 301 305 306 306 308 310 311 311 308 307 304 303 301 297 294 290 292 302 305 303 302 295 287 280 273 270 267 263 256 252 257 263 265 262 260 262 265 268 267 266 268 268 267 268 268 269 269 267 266 264 263 263 264 266 270 271 273 271 266 263 264 265 265 264 267 270 272 273 272 270 269 268 271 271 267 265 269 267 261 259 261 261 261 265 270 274 276
298 299 305 307 306 307 308 308 307 306 305 303 301 299 294 290 289 291 298 301 301 301 296 289 282 276 273 269 267 264 261 259 260 262 264 265 269 271 270 266 264 267 269 269 269 269 269 269 267 266 265 264 264 266 269 273 276 275 269 264 264 265 267 267 265 263 263 266 271 272 272 270 266 266 268 268 267 266 266 263 261 264 266 265 264 266 270 272
298 299 304 306 304 305 305 304 304 305 305 303 300 293 287 287 291 293 296 298 297 297 296 291 283 277 273 270 268 266 265 264 264 265 265 266 268 268 267 265 263 264 267 269 271 268 266 265 266 265 265 265 265 267 269 269 270 269 264 263 265 267 268 266 262 261 262 264 267 270 271 268 265 265 268 271 270 268 267 267 266 265 263 263 262 263 267 268
296 299 303 303 302 303 303 302 303 302 302 300 294 289 286 288 290 292 296 298 297 296 296 292 284 277 273 271 269 267 267 266 265 265 266 266 266 263 264 267 266 265 267 268 268 266 264 266 267 268 267 266 265 265 265 265 266 267 267 267 268 268 269 269 266 266 268 267 268 269 268 264 267 273 272 269 269 269 269 269 270 269 267 266 265 263 261 262
295 297 299 301 301 301 301 300 300 300 299 295 288 286 288 290 290 291 295 296 297 297 296 292 286 279 273 271 269 268 267 266 265 265 265 266 264 263 264 268 270 269 267 264 263 265 267 269 270 269 269 268 267 266 265 266 266 266 266 266 266 265 265 267 267 269 270 270 271 272 270 267 268 271 270 269 268 268 268 268 269 270 270 268 267 265 259 259
294 295 295 297 299 299 299 299 298 297 295 294 291 288 288 290 290 290 293 295 296 296 295 292 287 281 277 273 271 268 267 267 267 266 264 263 262 263 265 267 268 268 265 263 263 267 270 271 270 269 269 270 271 270 269 267 264 262 261 262 263 265 265 266 267 268 269 270 271 270 269 268 266 266 267 269 270 268 267 268 268 269 269 268 268 266 260 260
292 293 294 295 296 296 296 296 296 295 293 292 292 290 289 290 291 290 291 293 294 294 293 291 287 282 279 277 274 272 269 268 269 267 266 263 262 264 266 266 265 264 264 265 266 268 269 269 269 269 270 270 270 270 269 265 263 264 264 265 267 268 269 271 271 268 268 270 269 267 268 268 266 264 265 266 269 269 269 269 268 268 268 267 267 266 264 264
291 292 294 296 296 295 295 294 293 293 292 291 291 289 289 290 291 291 291 292 291 290 290 289 286 282 281 279 278 276 273 270 269 269 268 266 264 264 264 265 266 267 268 268 266 266 267 268 269 270 271 271 271 270 267 266 266 266 266 267 267 268 269 271 270 268 269 270 268 267 269 270 267 266 266 267 269 270 268 267 266 265 266 266 266 265 265 265
291 292 293 295 295 295 295 294 292 291 291 290 289 289 289 289 290 291 293 293 291 288 287 286 283 282 282 280 279 278 276 273 271 270 269 268 267 265 263 265 268 271 272 271 269 267 267 268 270 270 270 271 271 270 268 267 266 266 266 266 267 269 270 270 269 270 271 270 268 268 269 270 270 270 270 270 270 268 266 265 265 266 265 265 265 264 263 263
292 293 294 294 295 294 294 294 294 293 292 291 290 290 290 289 290 290 291 292 291 290 288 284 282 282 282 281 280 279 278 276 274 271 270 270 270 268 266 265 267 270 274 276 275 272 269 268 269 270 270 271 272 271 270 268 268 268 268 268 268 269 269 268 268 269 270 270 272 272 271 271 272 273 273 272 270 268 267 267 266 266 265 264 263 263 262 262
293 293 294 294 294 294 294 294 294 293 293 292 291 292 292 291 291 290 289 290 291 291 289 287 284 282 280 280 281 281 280 279 276 272 271 272 272 271 271 270 269 269 271 274 276 277 275 273 271 270 270 270 271 271 270 269 270 270 270 270 270 269 267 266 267 269 271 272 275 276 274 272 273 275 275 272 269 269 269 268 266 266 265 264 263 262 261 262
293 294 294 294 294 294 293 293 292 292 292 291 291 292 291 290 290 289 288 289 290 289 288 287 285 284 282 281 280 280 280 280 278 276 275 274 273 273 273 272 271 269 270 271 273 276 277 276 275 275 273 271 272 273 271 271 271 271 272 272 271 270 270 271 274 275 276 276 276 275 275 275 276 277 276 272 270 269 268 267 267 266 265 263 262 261 260 260
293 294 294 294 294 294 294 293 292 292 290 290 292 293 291 291 291 289 287 288 288 288 288 286 285 284 283 282 280 279 278 278 279 281 279 276 275 273 273 272 272 271 270 271 272 273 275 275 276 277 276 274 276 277 276 276 276 273 271 272 273 274 276 277 277 277 276 277 278 277 279 281 281 279 277 274 272 270 268 266 265 264 263 263 263 262 261 260
293 293 293 294 294 294 293 293 294 293 291 291 292 292 291 292 292 290 290 289 287 287 287 287 286 285 283 282 281 280 278 278 281 281 279 276 273 272 273 273 273 272 272 272 273 273 274 275 276 277 277 277 278 279 279 279 277 275 275 278 280 280 279 277 275 276 278 280 281 281 283 284 282 279 275 272 270 268 266 265 266 267 267 267 266 266 264 263
Height
5762 5761 5761 5761 5761 5761 5761 5761 5761 5761 5761 5762 5762 5763 5763 5764 5764 5764 5765 5765 5765 5765 5766 5766 5767 5767 5768 5768 5769 5769 5770 5770 5771 5772 5773 5773 5774 5774 5775 5776 5777 5778 5779 5779 5781 5781 5782 5784 5785 5786 5787 5788 5789 5790 5791 5792 5793 5794 5795 5797 5799 5802 5804 5806 5810 5812 5811 5806 5802 5805 5804 5803 5805 5808 5807 5806 5807 5808 5807 5806 5807 5808 5809 5810 5811 5813 5814 5814
5760 5760 5759 5759 5759 5759 5759 5759 5759 5759 5759 5760 5760 5761 5761 5762 5762 5762 5763 5763 5763 5763 5764 5764 5765 5765 5765 5766 5766 5767 5768 5768 5769 5770 5770 5771 5772 5772 5773 5773 5774 5775 5776 5777 5778 5779 5780 5781 5782 5784 5784 5786 5786 5787 5789 5789 5791 5792 5793 5795 5797 5800 5802 5804 5808 5806 5804 5800 5799 5802 5801 5801 5803 5804 5806 5806 5805 5804 5804 5804 5805 5806 5807 5808 5809 5810 5812 5812
5758 5758 5758 5758 5758 5757 5757 5757 5757 5757 5758 5758 5759 5759 5760 5760 5760 5761 5761 5761 5761 5762 5762 5762 5763 5763 5763 5764 5764 5765 5765 5766 5767 5767 5768 5768 5769 5769 5770 5771 5772 5773 5774 5775 5775 5777 5778 5779 5780 5781 5782 5783 5784 5785 5786 5787 5789 5790 5791 5793 5796 5798 5799 5800 5801 5798 5798 5795 5796 5798 5798 5800 5801 5801 5803 5804 5802 5801 5802 5803 5804 5805 5805 5806 5807 5808 5809 5810
5757 5756 5756 5756 5756 5756 5756 5756 5756 5756 5756 5757 5757 5758 5758 5759 5759 5759 5759 5760 5760 5760 5760 5760 5761 5761 5761 5762 5762 5762 5763 5764 5764 5765 5765 5766 5767 5767 5768 5769 5770 5771 5771 5772 5773 5775 5775 5777 5778 5778 5780 5781 5782 5783 5784 5785 5787 5788 5789 5792 5793 5795 5796 5796 5794 5794 5795 5793 5793 5796 5798 5799 5798 5799 5801 5802 5801 5799 5801 5801 5801 5802 5801 5804 5806 5807 5807 5808
5755 5755 5755 5755 5755 5755 5755 5755 5755 5755 5755 5756 5756 5757 5757 5758 5758 5758 5758 5758 5758 5759 5759 5759 5759 5759 5759 5760 5760 5760 5761 5762 5762 5763 5763 5764 5764 5765 5766 5767 5767 5768 5769 5770 5771 5772 5773 5774 5775 5776 5778 5779 5780 5781 5782 5783 5785 5785 5787 5789 5789 5790 5792 5790 5789 5790 5791 5791 5793 5795 5798 5798 5796 5797 5799 5801 5800 5797 5798 5798 5797 5798 5800 5805 5806 5804 5804 5805
5754 5754 5754 5754 5753 5753 5753 5754 5754 5754 5754 5755 5755 5756 5756 5757 5757 5757 5757 5757 5757 5757 5757 5757 5757 5757 5758 5758 5758 5759 5759 5760 5760 5761 5761 5762 5762 5763 5764 5765 5765 5766 5767 5768 5769 5770 5771 5772 5773 5775 5776 5777 5778 5779 5780 5781 5782 5784 5785 5786 5786 5786 5786 5785 5786 5789 5790 5792 5793 5792 5795 5795 5793 5796 5798 5798 5796 5795 5796 5796 5795 5797 5802 5804 5803 5801 5802 5803
5754 5753 5753 5753 5752 5752 5753 5753 5753 5753 5754 5754 5754 5755 5755 5756 5756 5756 5756 5756 5756 5756 5756 5756 5756 5756 5757 5757 5757 5758 5758 5758 5758 5759 5759 5760 5761 5761 5762 5763 5763 5764 5765 5766 5767 5768 5769 5770 5771 5773 5774 5775 5776 5777 5779 5779 5780 5782 5782 5783 5783 5784 5784 5783 5786 5789 5789 5790 5791 5789 5792 5792 5792 5795 5796 5795 5794 5794 5795 5795 5794 5797 5800 5801 5800 5799 5799 5800
5753 5753 5752 5752 5752 5752 5752 5752 5752 5752 5753 5753 5753 5754 5754 5755 5755 5755 5755 5755 5755 5755 5755 5755 5755 5756 5756 5756 5756 5757 5757 5757 5757 5758 5758 5759 5759 5760 5761 5761 5762 5763 5764 5765 5765 5766 5767 5769 5770 5771 5772 5773 5774 5776 5776 5777 5779 5780 5781 5781 5781 5781 5782 5782 5786 5788 5787 5788 5788 5788 5791 5792 5792 5793 5793 5793 5793 5792 5794 5794 5793 5794 5796 5798 5798 5798 5798 5798
5753 5752 5752 5751 5751 5751 5751 5751 5751 5751 5752 5752 5752 5753 5753 5753 5754 5754 5754 5754 5754 5754 5754 5755 5755 5755 5755 5755 5756 5756 5756 5756 5756 5756 5757 5757 5758 5759 5759 5760 5761 5762 5763 5763 5764 5765 5766 5767 5768 5769 5771 5771 5772 5774 5774 5776 5778 5778 5779 5779 5778 5780 5781 5781 5785 5786 5786 5787 5787 5787 5790 5790 5790 5790 5791 5793 5792 5789 5793 5793 5790 5791 5793 5795 5796 5796 5796 5796
5753 5752 5751 5751 5750 5750 5750 5750 5750 5750 5751 5751 5751 5752 5752 5752 5753 5753 5753 5753 5753 5753 5754 5754 5754 5754 5754 5755 5755 5755 5755 5755 5755 5756 5756 5757 5757 5758 5759 5759 5760 5761 5762 5763 5764 5764 5765 5767 5767 5769 5770 5770 5771 5772 5774 5776 5775 5774 5776 5776 5777 5779 5780 5781 5783 5784 5784 5785 5786 5787 5788 5787 5787 5788 5790 5792 5789 5786 5791 5791 5788 5789 5790 5793 5794 5794 5794 5794
5752 5752 5751 5750 5750 5750 5750 5749 5750 5750 5750 5750 5750 5751 5751 5751 5751 5752 5752 5752 5752 5752 5753 5753 5753 5753 5754 5754 5754 5754 5754 5754 5755 5755 5755 5756 5757 5758 5758 5759 5760 5761 5762 5762 5763 5764 5765 5767 5767 5769 5769 5769 5771 5771 5772 5773 5772 5774 5776 5775 5776 5778 5778 5780 5781 5781 5783 5783 5783 5784 5785 5785 5785 5786 5789 5790 5785 5784 5790 5789 5786 5787 5787 5790 5791 5792 5792 5792
5752 5751 5751 5750 5750 5749 5749 5749 5749 5749 5749 5749 5749 5749 5749 5750 5750 5750 5751 5751 5751 5751 5751 5752 5752 5752 5753 5753 5753 5753 5753 5754 5754 5755 5755 5756 5756 5757 5758 5759 5760 5761 5761 5762 5763 5764 5765 5766 5767 5767 5767 5769 5769 5769 5771 5772 5772 5773 5774 5774 5775 5775 5776 5778 5778 5778 5781 5780 5779 5782 5783 5782 5783 5784 5787 5785 5779 5782 5789 5787 5784 5784 5785 5786 5788 5790 5790 5789
5752 5751 5750 5750 5749 5749 5749 5748 5748 5748 5748 5748 5748 5748 5748 5748 5749 5749 5750 5750 5750 5750 5750 5751 5751 5751 5752 5751 5752 5752 5753 5753 5754 5754 5755 5755 5756 5757 5758 5759 5760 5760 5761 5762 5763 5763 5764 5765 5765 5766 5767 5768 5767 5768 5770 5771 5771 5771 5772 5773 5773 5773 5774 5776 5776 5776 5777 5776 5777 5781 5780 5780 5781 5782 5784 5779 5775 5781 5786 5783 5782 5782 5783 5783 5785 5787 5786 5787
5751 5751 5750 5749 5749 5749 5748 5748 5747 5747 5747 5747 5747 5747 5747 5747 5747 5748 5748 5749 5749 5749 5749 5749 5750 5750 5750 5750 5751 5751 5752 5752 5753 5753 5754 5755 5755 5756 5757 5758 5759 5759 5760 5761 5762 5763 5763 5764 5764 5765 5766 5765 5766 5768 5770 5769 5770 5770 5770 5771 5771 5771 5772 5773 5772 5772 5774 5774 5775 5778 5777 5779 5779 5779 5779 5773 5773 5781 5782 5780 5781 5780 5780 5780 5782 5784 5783 5783
5751 5750 5750 5749 5748 5748 5748 5747 5747 5746 5746 5746 5746 5746 5746 5746 5746 5746 5747 5747 5747 5748 5748 5748 5748 5748 5749 5749 5750 5750 5751 5751 5752 5753 5753 5754 5754 5755 5756 5757 5758 5758 5759 5760 5761 5761 5762 5762 5763 5763 5764 5764 5765 5767 5767 5767 5768 5768 5768 5769 5770 5770 5772 5771 5766 5768 5773 5772 5773 5775 5775 5777 5778 5776 5772 5768 5772 5779 5779 5778 5778 5776 5777 5778 5779 5781 5780 5779
5750 5750 5749 5748 5748 5747 5747 5746 5746 5746 5745 5745 5745 5745 5745 5745 5745 5745 5745 5746 5746 5746 5746 5746 5746 5747 5747 5748 5748 5748 5749 5750 5751 5751 5752 5752 5753 5754 5755 5755 5756 5757 5757 5758 5759 5760 5760 5761 5761 5762 5762 5763 5764 5765 5765 5765 5766 5767 5767 5767 5767 5768 5771 5770 5763 5766 5771 5768 5769 5772 5772 5774 5776 5773 5766 5763 5770 5776 5776 5775 5774 5774 5774 5775 5777 5777 5776 5775
5749 5749 5748 5747 5747 5746 5746 5746 5745 5745 5745 5744 5744 5744 5744 5743 5743 5744 5744 5744 5744 5744 5744 5744 5744 5745 5745 5746 5746 5747 5748 5748 5749 5749 5750 5751 5751 5752 5753 5754 5754 5755 5756 5756 5757 5758 5758 5759 5759 5760 5760 5761 5762 5763 5763 5764 5764 5765 5765 5765 5766 5766 5768 5770 5765 5763 5766 5765 5765 5769 5771 5772 5772 5769 5763 5760 5766 5772 5773 5772 5771 5771 5772 5773 5774 5773 5772 5772
5748 5748 5747 5746 5746 5745 5745 5745 5744 5744 5744 5743 5743 5743 5742 5742 5742 5742 5742 5743 5743 5743 5743 5743 5743 5743 5743 5744 5744 5745 5746 5746 5747 5747 5748 5749 5750 5750 5751 5752 5752 5753 5753 5754 5755 5756 5756 5757 5757 5758 5758 5759 5760 5760 5761 5762 5763 5763 5762 5762 5763 5764 5766 5769 5766 5760 5759 5761 5764 5766 5768 5770 5769 5767 5761 5756 5763 5770 5769 5769 5769 5768 5769 5770 5770 5770 5769 5769
5747 5747 5746 5745 5745 5744 5744 5744 5743 5743 5742 5742 5742 5741 5741 5741 5741 5740 5741 5741 5741 5741 5741 5742 5741 5741 5741 5742 5743 5743 5743 5744 5744 5745 5746 5747 5747 5748 5749 5749 5750 5751 5751 5752 5752 5753 5754 5755 5755 5756 5756 5757 5757 5759 5760 5758 5758 5759 5760 5760 5761 5763 5764 5766 5766 5759 5756 5758 5761 5763 5765 5767 5767 5767 5762 5753 5756 5766 5766 5766 5767 5765 5766 5767 5767 5767 5767 5766
5746 5745 5745 5744 5744 5743 5743 5742 5742 5742 5741 5741 5740 5740 5740 5739 5739 5739 5739 5739 5739 5739 5740 5740 5740 5739 5739 5740 5741 5741 5741 5742 5742 5743 5744 5745 5745 5746 5746 5747 5748 5749 5749 5749 5750 5750 5751 5752 5753 5754 5753 5753 5754 5755 5756 5754 5756 5758 5758 5758 5759 5760 5762 5764 5762 5755 5754 5757 5758 5759 5760 5763 5763 5764 5764 5755 5749 5757 5764 5765 5764 5763 5762 5762 5763 5764 5764 5764
5745 5744 5744 5743 5742 5742 5741 5741 5741 5741 5740 5740 5739 5739 5738 5738 5738 5737 5737 5737 5737 5737 5738 5738 5738 5737 5737 5739 5739 5739 5739 5740 5740 5741 5741 5742 5743 5743 5744 5745 5745 5746 5746 5746 5747 5748 5749 5749 5750 5750 5750 5750 5750 5751 5752 5753 5755 5756 5756 5757 5756 5756 5758 5760 5757 5751 5751 5754 5755 5755 5755 5758 5760 5760 5761 5758 5749 5748 5757 5763 5762 5761 5759 5758 5759 5760 5760 5760
5743 5743 5742 5741 5741 5740 5740 5740 5739 5739 5739 5738 5738 5737 5737 5737 5736 5736 5735 5735 5735 5736 5735 5736 5736 5735 5736 5736 5737 5737 5738 5737 5737 5738 5739 5740 5740 5740 5741 5742 5743 5743 5743 5743 5744 5745 5746 5747 5747 5746 5747 5748 5747 5748 5749 5750 5752 5753 5753 5754 5754 5754 5755 5756 5754 5750 5748 5748 5751 5753 5753 5753 5755 5756 5756 5756 5752 5745 5748 5757 5759 5757 5756 5755 5756 5756 5756 5756
5742 5741 5740 5740 5739 5739 5738 5738 5738 5737 5737 5737 5736 5736 5735 5735 5735 5734 5734 5734 5734 5734 5734 5734 5734 5733 5734 5734 5735 5736 5735 5734 5734 5736 5737 5738 5738 5738 5738 5740 5741 5740 5741 5741 5741 5742 5743 5744 5743 5742 5745 5746 5744 5745 5746 5747 5749 5750 5750 5750 5751 5752 5753 5753 5750 5746 5743 5745 5748 5750 5749 5749 5751 5753 5752 5751 5751 5747 5743 5749 5755 5754 5752 5752 5753 5753 5752 5753
5740 5739 5739 5738 5737 5737 5737 5736 5736 5735 5735 5735 5735 5734 5734 5733 5733 5733 5732 5732 5732 5732 5732 5732 5732 5731 5732 5732 5733 5733 5732 5732 5732 5733 5735 5736 5735 5735 5736 5737 5738 5738 5739 5738 5738 5739 5740 5739 5739 5740 5742 5742 5741 5742 5743 5744 5745 5746 5747 5747 5748 5749 5749 5748 5744 5740 5740 5743 5747 5746 5743 5745 5748 5748 5747 5746 5747 5746 5743 5743 5748 5750 5749 5748 5748 5749 5749 5749
5738 5737 5737 5736 5735 5735 5735 5734 5734 5733 5733 5733 5733 5732 5732 5732 5732 5731 5731 5731 5730 5730 5730 5730 5730 5730 5730 5731 5731 5730 5730 5730 5730 5730 5733 5733 5732 5733 5733 5734 5735 5736 5737 5736 5735 5737 5737 5735 5737 5738 5737 5738 5739 5740 5740 5741 5742 5742 5743 5743 5744 5745 5744 5743 5740 5736 5738 5741 5742 5741 5739 5741 5744 5742 5741 5742 5742 5743 5742 5741 5742 5745 5746 5745 5745 5745 5745 5746
5736 5735 5735 5734 5734 5733 5733 5732 5732 5731 5731 5731 5731 5731 5730 5730 5730 5730 5730 5729 5728 5728 5728 5728 5729 5729 5728 5729 5729 5729 5728 5728 5728 5728 5730 5730 5729 5730 5731 5731 5732 5733 5733 5732 5733 5734 5733 5731 5734 5735 5733 5734 5736 5736 5737 5737 5738 5738 5739 5739 5739 5740 5738 5739 5738 5735 5737 5740 5737 5735 5736 5737 5740 5738 5736 5738 5738 5737 5739 5739 5739 5740 5741 5742 5742 5742 5742 5743
5735 5734 5734 5733 5732 5732 5731 5731 5730 5730 5729 5729 5729 5729 5729 5728 5728 5728 5728 5727 5726 5726 5726 5727 5728 5727 5727 5727 5728 5727 5727 5726 5727 5727 5727 5728 5727 5728 5729 5728 5729 5730 5729 5729 5731 5731 5730 5728 5730 5731 5730 5731 5732 5733 5733 5733 5733 5734 5734 5734 5734 5734 5733 5734 5735 5734 5734 5736 5732 5731 5733 5734 5736 5736 5735 5735 5733 5732 5735 5737 5737 5737 5737 5738 5739 5739 5739 5739
5734 5733 5733 5732 5732 5731 5730 5730 5729 5729 5728 5728 5728 5727 5727 5727 5727 5726 5726 5726 5725 5725 5724 5725 5726 5725 5725 5726 5726 5725 5725 5725 5725 5725 5725 5726 5726 5726 5727 5726 5726 5728 5727 5727 5728 5728 5728 5726 5726 5728 5728 5728 5729 5729 5729 5729 5730 5730 5730 5730 5730 5730 5730 5730 5731 5731 5731 5731 5729 5729 5731 5730 5732 5735 5735 5733 5732 5730 5731 5733 5734 5734 5734 5734 5735 5735 5735 5736
5733 5733 5732 5732 5731 5730 5730 5729 5729 5728 5728 5727 5727 5726 5726 5726 5725 5725 5724 5724 5724 5723 5723 5723 5724 5724 5724 5724 5724 5724 5723 5723 5723 5723 5724 5724 5724 5724 5724 5724 5725 5725 5724 5725 5725 5725 5725 5724 5724 5725 5725 5726 5726 5726 5725 5726 5726 5727 5726 5727 5727 5727 5727 5728 5728 5728 5728 5727 5726 5729 5730 5728 5729 5733 5733 5732 5731 5729 5729 5729 5728 5730 5731 5731 5732 5732 5732 5732
5733 5732 5732 5731 5730 5730 5729 5729 5728 5727 5727 5726 5726 5725 5725 5724 5724 5724 5723 5723 5723 5722 5722 5722 5721 5722 5722 5722 5721 5721 5721 5721 5721 5721 5722 5722 5722 5722 5722 5723 5723 5723 5723 5723 5723 5723 5722 5721 5722 5723 5723 5723 5724 5723 5723 5724 5724 5724 5724 5724 5725 5724 5725 5725 5725 5725 5724 5723 5725 5728 5728 5727 5726 5729 5731 5731 5728 5726 5727 5726 5724 5725 5728 5729 5729 5729 5729 5728
5732 5732 5731 5731 5730 5729 5729 5728 5727 5727 5726 5726 5725 5724 5724 5723 5723 5722 5722 5722 5722 5721 5721 5721 5720 5720 5720 5720 5720 5719 5719 5719 5718 5718 5719 5719 5720 5720 5720 5720 5720 5720 5720 5720 5721 5720 5719 5719 5720 5720 5720 5721 5721 5721 5721 5721 5722 5722 5722 5722 5722 5722 5722 5721 5721 5722 5720 5721 5724 5725 5725 5724 5722 5724 5728 5728 5725 5723 5724 5724 5723 5722 5722 5724 5726 5726 5726 5726
5732 5731 5730 5730 5729 5729 5728 5728 5727 5726 5726 5725 5724 5724 5723 5722 5722 5722 5721 5721 5721 5720 5720 5719 5719 5719 5719 5719 5719 5718 5717 5717 5717 5716 5716 5716 5717 5717 5717 5717 5717 5718 5718 5718 5717 5717 5716 5716 5717 5717 5717 5718 5719 5719 5719 5719 5719 5720 5720 5720 5720 5720 5720 5719 5719 5718 5717 5719 5721 5721 5721 5720 5719 5721 5724 5724 5723 5722 5721 5722 5723 5721 5719 5720 5722 5722 5723 5723
5731 5730 5730 5729 5729 5728 5728 5727 5726 5726 5725 5725 5724 5723 5722 5722 5721 5721 5721 5721 5720 5719 5719 5718 5718 5718 5718 5718 5718 5717 5716 5715 5715 5715 5714 5714 5714 5714 5714 5714 5714 5715 5716 5715 5715 5715 5715 5715 5714 5714 5715 5715 5716 5716 5716 5716 5717 5717 5717 5717 5717 5718 5718 5717 5717 5717 5716 5716 5717 5717 5717 5716 5716 5718 5720 5721 5721 5721 5720 5719 5720 5721 5718 5716 5718 5718 5718 5719
5730 5730 5729 5729 5728 5728 5727 5726 5726 5725 5724 5724 5723 5722 5722 5721 5721 5720 5720 5720 5718 5718 5718 5716 5716 5716 5715 5716 5716 5715 5715 5714 5714 5713 5713 5713 5713 5713 5713 5712 5712 5713 5713 5712 5713 5713 5713 5713 5713 5713 5713 5712 5712 5714 5714 5715 5715 5714 5715 5715 5714 5715 5715 5715 5715 5715 5714 5714 5713 5713 5713 5713 5715 5716 5717 5718 5717 5718 5718 5716 5715 5717 5716 5714 5714 5714 5714 5714
5730 5729 5729 5728 5727 5727 5726 5726 5725 5724 5723 5723 5722 5721 5720 5720 5720 5719 5719 5718 5716 5716 5716 5714 5714 5714 5713 5713 5714 5713 5712 5713 5711 5710 5711 5711 5711 5711 5711 5711 5710 5710 5710 5709 5710 5710 5710 5711 5712 5711 5711 5710 5709 5711 5712 5712 5713 5713 5714 5712 5711 5712 5712 5711 5711 5711 5711 5709 5709 5710 5710 5710 5712 5713 5714 5714 5714 5715 5717 5715 5712 5711 5711 5710 5710 5710 5710 5709
5729 5728 5728 5727 5726 5725 5725 5724 5724 5723 5722 5721 5720 5720 5719 5719 5718 5717 5717 5716 5715 5714 5714 5713 5712 5712 5712 5713 5713 5711 5709 5710 5709 5708 5709 5709 5709 5709 5709 5709 5708 5706 5707 5707 5707 5707 5707 5708 5709 5709 5710 5708 5707 5708 5709 5709 5709 5710 5711 5710 5710 5710 5709 5707 5706 5707 5707 5705 5706 5708 5707 5708 5709 5709 5711 5711 5710 5711 5712 5712 5710 5707 5705 5705 5705 5706 5707 5706
5727 5727 5726 5725 5725 5724 5723 5723 5722 5721 5720 5719 5719 5718 5717 5716 5716 5715 5714 5714 5713 5712 5711 5711 5710 5710 5711 5711 5711 5710 5708 5707 5707 5706 5706 5707 5707 5706 5707 5707 5705 5703 5704 5704 5703 5704 5703 5704 5706 5706 5707 5706 5704 5705 5706 5706 5706 5706 5707 5708 5708 5707 5706 5704 5702 5702 5702 5701 5702 5704 5704 5705 5706 5706 5708 5709 5707 5707 5708 5707 5707 5705 5703 5701 5701 5702 5703 5703
5726 5725 5724 5724 5723 5722 5721 5720 5720 5719 5718 5717 5717 5716 5715 5714 5713 5712 5712 5711 5710 5709 5708 5708 5707 5706 5707 5707 5707 5708 5706 5704 5704 5703 5703 5704 5703 5702 5703 5703 5701 5699 5700 5700 5700 5700 5700 5700 5701 5702 5704 5703 5702 5701 5702 5702 5702 5703 5704 5705 5704 5702 5702 5701 5699 5698 5698 5697 5697 5699 5700 5701 5702 5703 5706 5706 5705 5704 5704 5704 5703 5702 5702 5700 5698 5698 5698 5699
5723 5723 5722 5722 5721 5720 5719 5718 5717 5716 5715 5714 5714 5713 5712 5711 5710 5709 5709 5708 5706 5706 5705 5704 5704 5703 5703 5703 5703 5703 5703 5701 5701 5700 5700 5700 5699 5698 5699 5698 5697 5695 5696 5697 5696 5696 5696 5696 5696 5698 5699 5699 5698 5698 5698 5698 5699 5700 5700 5700 5699 5698 5697 5697 5696 5695 5695 5693 5692 5694 5695 5697 5700 5702 5702 5702 5702 5700 5700 5699 5699 5698 5699 5699 5697 5694 5694 5694
5721 5720 5720 5719 5718 5718 5717 5716 5715 5713 5712 5712 5711 5710 5709 5708 5707 5706 5706 5706 5703 5702 5702 5701 5700 5699 5699 5699 5698 5698 5698 5698 5697 5697 5696 5696 5695 5695 5694 5692 5693 5692 5692 5693 5692 5692 5692 5691 5690 5692 5694 5694 5694 5695 5695 5695 5695 5695 5695 5694 5693 5694 5693 5692 5691 5691 5691 5689 5689 5689 5689 5692 5697 5698 5698 5697 5696 5695 5694 5694 5695 5695 5695 5695 5694 5693 5691 5690
5718 5717 5717 5717 5716 5715 5714 5713 5712 5711 5710 5709 5708 5707 5706 5705 5704 5702 5701 5702 5701 5699 5698 5697 5696 5695 5695 5694 5694 5694 5694 5693 5693 5692 5692 5693 5693 5692 5688 5685 5688 5689 5689 5689 5688 5687 5687 5686 5686 5688 5689 5690 5691 5692 5692 5691 5691 5690 5689 5689 5689 5689 5688 5686 5685 5686 5686 5685 5685 5684 5683 5687 5693 5693 5694 5693 5689 5688 5689 5690 5691 5690 5689 5689 5689 5689 5688 5686
5715 5714 5714 5713 5712 5712 5711 5710 5709 5708 5707 5706 5705 5703 5702 5702 5701 5699 5697 5697 5696 5695 5694 5693 5693 5692 5691 5690 5690 5690 5689 5688 5688 5688 5688 5689 5688 5686 5682 5680 5683 5685 5685 5685 5683 5680 5681 5682 5682 5683 5684 5684 5686 5687 5687 5686 5686 5686 5685 5685 5685 5685 5684 5682 5680 5681 5681 5680 5681 5680 5678 5683 5689 5689 5688 5686 5683 5683 5684 5685 5686 5685 5684 5684 5684 5685 5683 5681
5713 5712 5711 5710 5709 5708 5708 5707 5706 5705 5703 5703 5702 5700 5698 5698 5697 5695 5694 5692 5691 5691 5690 5689 5688 5687 5687 5686 5685 5686 5685 5683 5683 5683 5684 5685 5683 5679 5678 5678 5678 5679 5680 5680 5677 5675 5676 5678 5678 5678 5677 5678 5681 5682 5683 5683 5682 5680 5679 5680 5679 5679 5680 5677 5675 5676 5674 5674 5677 5675 5672 5678 5685 5684 5681 5678 5678 5679 5679 5680 5681 5679 5679 5680 5680 5681 5680 5677
5709 5708 5708 5708 5707 5705 5704 5703 5702 5701 5699 5698 5698 5697 5694 5693 5692 5691 5690 5688 5686 5686 5685 5684 5684 5682 5682 5682 5681 5681 5680 5678 5678 5679 5679 5679 5677 5674 5674 5675 5674 5672 5672 5673 5672 5672 5673 5673 5672 5672 5672 5673 5675 5677 5678 5677 5674 5672 5673 5674 5673 5674 5673 5672 5671 5670 5668 5669 5672 5668 5665 5672 5679 5678 5674 5672 5672 5674 5674 5674 5675 5674 5673 5674 5675 5676 5675 5674
5706 5705 5703 5703 5703 5702 5700 5699 5698 5696 5695 5694 5693 5692 5690 5689 5686 5685 5686 5685 5682 5680 5680 5679 5679 5678 5677 5676 5676 5676 5675 5674 5673 5673 5673 5673 5672 5671 5670 5669 5667 5664 5665 5668 5669 5669 5668 5667 5666 5667 5667 5668 5670 5672 5672 5669 5666 5666 5668 5668 5669 5669 5668 5667 5666 5664 5662 5665 5665 5661 5660 5666 5671 5672 5671 5670 5668 5668 5669 5668 5668 5667 5667 5667 5669 5671 5670 5670
5702 5701 5700 5699 5698 5697 5696 5695 5694 5692 5690 5689 5688 5687 5686 5685 5682 5679 5679 5681 5679 5676 5675 5674 5673 5673 5672 5671 5670 5670 5670 5670 5668 5667 5667 5667 5667 5667 5665 5663 5661 5658 5660 5663 5664 5664 5663 5662 5662 5662 5662 5662 5664 5665 5664 5662 5660 5661 5662 5663 5664 5664 5663 5662 5659 5657 5658 5658 5656 5656 5657 5658 5662 5666 5667 5667 5665 5664 5663 5661 5659 5660 5661 5661 5664 5665 5664 5664
5698 5696 5696 5695 5693 5692 5691 5689 5689 5688 5686 5684 5683 5683 5681 5681 5679 5674 5672 5674 5674 5672 5671 5670 5668 5668 5667 5666 5665 5664 5664 5664 5663 5662 5661 5660 5661 5661 5660 5658 5656 5654 5654 5655 5656 5658 5658 5657 5657 5656 5656 5657 5658 5657 5657 5655 5654 5655 5656 5657 5659 5659 5658 5655 5651 5651 5653 5649 5647 5653 5655 5650 5653 5660 5662 5662 5661 5657 5654 5652 5651 5653 5656 5656 5657 5657 5656 5656
5693 5691 5691 5690 5688 5687 5686 5684 5682 5682 5681 5678 5677 5677 5676 5675 5675 5672 5668 5667 5667 5666 5666 5665 5664 5663 5662 5660 5659 5658 5658 5658 5657 5656 5655 5655 5655 5654 5654 5654 5653 5651 5649 5647 5648 5650 5651 5651 5651 5650 5650 5652 5651 5650 5649 5648 5647 5648 5650 5652 5654 5654 5651 5647 5645 5645 5645 5641 5641 5648 5649 5645 5647 5653 5655 5656 5653 5647 5645 5645 5645 5646 5648 5648 5648 5648 5648 5649
5688 5686 5685 5685 5684 5681 5681 5680 5678 5676 5675 5673 5672 5672 5670 5669 5669 5668 5664 5662 5661 5660 5660 5659 5659 5658 5657 5655 5654 5652 5652 5651 5650 5650 5651 5650 5649 5648 5647 5648 5649 5648 5645 5643 5642 5642 5642 5644 5644 5643 5644 5646 5645 5643 5642 5641 5641 5641 5643 5646 5648 5646 5642 5639 5639 5640 5639 5636 5637 5639 5638 5638 5643 5647 5646 5646 5643 5639 5637 5636 5637 5638 5639 5639 5640 5640 5640 5641
5683 5681 5680 5679 5679 5677 5675 5675 5673 5672 5670 5668 5667 5667 5665 5663 5663 5662 5660 5658 5657 5655 5655 5654 5653 5652 5652 5651 5649 5648 5646 5643 5643 5645 5646 5645 5643 5642 5642 5642 5643 5642 5640 5639 5638 5637 5635 5636 5637 5635 5636 5639 5639 5636 5634 5635 5634 5634 5638 5641 5640 5635 5633 5633 5634 5634 5632 5630 5631 5630 5627 5630 5639 5640 5635 5634 5633 5631 5629 5628 5629 5629 5630 5630 5630 5630 5631 5633
5678 5676 5675 5674 5673 5672 5670 5669 5668 5667 5666 5663 5662 5661 5659 5658 5658 5656 5656 5655 5652 5650 5649 5648 5647 5647 5646 5645 5643 5643 5641 5637 5637 5640 5640 5639 5638 5637 5636 5636 5636 5635 5635 5634 5633 5632 5631 5630 5630 5629 5628 5632 5633 5628 5627 5629 5627 5627 5632 5633 5631 5628 5627 5627 5627 5626 5625 5623 5623 5622 5620 5623 5630 5629 5624 5622 5623 5623 5621 5620 5619 5620 5621 5621 5621 5621 5622 5623
5673 5672 5670 5669 5668 5667 5665 5664 5662 5661 5659 5658 5658 5656 5654 5653 5652 5650 5650 5650 5648 5646 5644 5643 5642 5641 5641 5640 5638 5637 5635 5632 5633 5635 5634 5633 5632 5630 5630 5631 5630 5629 5629 5628 5627 5627 5625 5624 5625 5622 5621 5626 5626 5620 5620 5622 5619 5621 5626 5626 5623 5621 5619 5619 5619 5619 5619 5617 5615 5614 5614 5615 5617 5616 5613 5612 5613 5613 5611 5610 5610 5612 5614 5614 5613 5613 5613 5613